Weather History for Key West, FL

Change the Weather History Date:

Monday, May 12, 2014

  Actual Average Record
Temperature  
Mean Temperature 83 °F 80 °F  
Max Temperature 87 °F 85 °F 90 °F (1926)
Min Temperature 79 °F 75 °F 68 °F (1944)
Degree Days  
Heating Degree Days 0 0  
Month to date heating degree days 0 0  
Since 1 July heating degree days 22 73  
Cooling Degree Days 18 15  
Month to date cooling degree days 207 170  
Year to date cooling degree days 1301 1124  
Growing Degree Days 33 (Base 50)    
Moisture  
Dew Point 70 °F    
Average Humidity 66    
Maximum Humidity 74    
Minimum Humidity 57    
Precipitation  
Precipitation 0.00 in 0.08 in 2.58 in (1898)
Month to date precipitation 0.31 0.79  
Year to date precipitation 12.25 8.42  
Snow  
Snow 0.00 in - - ()
Month to date snowfall 0.0  
Since 1 July snowfall 0.0  
Snow Depth 0.00 in    
Sea Level Pressure  
Sea Level Pressure 30.04 in    
Wind  
Wind Speed 15 mph (East)    
Max Wind Speed 22 mph    
Max Gust Speed 29 mph    
Visibility 10 miles    
Events      
T = Trace of Precipitation, MM = Missing Value Source: NWS Daily Summary

Daily Weather History Graph

Daily Weather History Graph

Search for Another Location

Airport:

Trip Planner

Search our weather history database for the weather conditions in past years. The results will help you decide how hot, cold, wet, or windy it might be!

Date:

Astronomy

May. 12, 2014 Rise Set
Actual Time 6:44 AM EDT 8:02 PM EDT
Civil Twilight 6:20 AM EDT 8:26 PM EDT
Nautical Twilight 5:51 AM EDT 8:55 PM EDT
Astronomical Twilight 5:21 AM EDT 9:25 PM EDT
Moon 6:11 PM EDT (5/12) 5:07 AM EDT (5/12)
Length of Visible Light 14h 06m
Length of Day
13h 17m
Waxing Gibbous, 95% of the Moon is Illuminated
May 12
Waxing Gibbous
May 14
Full
May 21
Last Quarter
May 28
New
Jun 5
First Quarter

Hourly Weather History & Observations

Time (EDT) Temp. Heat Index Dew Point Humidity Pressure Visibility Wind Dir Wind Speed Gust Speed Precip Events Conditions
12:53 AM 80.1 °F 82.3 °F 66.9 °F 64% 30.06 in 10.0 mi East 10.4 mph - N/A   Clear
1:53 AM 80.1 °F 82.9 °F 69.1 °F 69% 30.05 in 10.0 mi ENE 6.9 mph - N/A   Partly Cloudy
2:53 AM 80.1 °F 82.7 °F 68.0 °F 67% 30.03 in 10.0 mi East 12.7 mph - N/A   Partly Cloudy
3:53 AM 80.1 °F 82.7 °F 68.0 °F 67% 30.02 in 10.0 mi East 11.5 mph - N/A   Partly Cloudy
4:53 AM 80.1 °F 82.9 °F 69.1 °F 69% 30.02 in 10.0 mi ESE 13.8 mph - N/A   Scattered Clouds
5:53 AM 80.1 °F 82.9 °F 69.1 °F 69% 30.02 in 10.0 mi East 12.7 mph - N/A   Partly Cloudy
6:53 AM 80.1 °F 82.9 °F 69.1 °F 69% 30.03 in 10.0 mi East 16.1 mph - N/A   Mostly Cloudy
7:53 AM 80.1 °F 82.7 °F 68.0 °F 67% 30.05 in 10.0 mi East 13.8 mph 20.7 mph N/A   Mostly Cloudy
8:53 AM 82.0 °F 84.9 °F 68.0 °F 62% 30.06 in 10.0 mi East 19.6 mph - N/A   Clear
9:53 AM 82.4 °F 85.4 °F 68.0 °F 62% 30.07 in 10.0 mi East 16.1 mph - N/A   Clear
10:53 AM 84.0 °F 87.0 °F 68.0 °F 58% 30.08 in 10.0 mi East 15.0 mph - N/A   Partly Cloudy
11:53 AM 84.9 °F 88.2 °F 68.0 °F 57% 30.08 in 10.0 mi East 17.3 mph - N/A   Clear
12:53 PM 86.0 °F 90.1 °F 69.1 °F 57% 30.07 in 10.0 mi East 18.4 mph 25.3 mph N/A   Partly Cloudy
1:53 PM 86.0 °F 90.7 °F 70.0 °F 59% 30.06 in 10.0 mi East 19.6 mph 25.3 mph N/A   Partly Cloudy
2:53 PM 86.0 °F 91.5 °F 71.1 °F 61% 30.04 in 10.0 mi East 18.4 mph - N/A   Clear
3:53 PM 86.0 °F 90.7 °F 70.0 °F 59% 30.03 in 10.0 mi East 17.3 mph 25.3 mph N/A   Partly Cloudy
4:53 PM 84.9 °F 89.4 °F 70.0 °F 61% 30.02 in 10.0 mi East 15.0 mph 24.2 mph N/A   Clear
5:53 PM 84.0 °F 89.0 °F 71.1 °F 65% 30.02 in 10.0 mi East 19.6 mph 25.3 mph N/A   Clear
6:53 PM 82.9 °F 87.5 °F 71.1 °F 67% 30.01 in 10.0 mi East 12.7 mph 24.2 mph N/A   Clear
7:53 PM 82.0 °F 86.7 °F 72.0 °F 71% 30.01 in 10.0 mi East 15.0 mph 21.9 mph N/A   Partly Cloudy
8:53 PM 81.0 °F 85.2 °F 72.0 °F 74% 30.02 in 10.0 mi East 12.7 mph 20.7 mph N/A   Partly Cloudy
9:53 PM 81.0 °F 85.2 °F 72.0 °F 74% 30.02 in 10.0 mi East 12.7 mph 19.6 mph N/A   Clear
10:53 PM 80.6 °F 84.6 °F 71.6 °F 74% 30.02 in 10.0 mi ENE 15.0 mph 23.0 mph N/A   Partly Cloudy
11:53 PM 81.0 °F 84.9 °F 71.1 °F 72% 30.01 in 10.0 mi ENE 12.7 mph 24.2 mph N/A   Mostly Cloudy